This demonstration page uses our WeatherBlox Daily Observations layout. Learn more.

Left ArrowRight Arrow

Hourly Observations for October 21, 2021

Temp ( °F °C ) Dew Point ( °F °C ) Humidity (%) Winds ( mph kmh ) Pressure ( in mb ) Visibility ( mi km ) Precip ( " mm )
12:23 am 00:23 Cloudy 55 12.8 53 11.7 93 93 N N/A 30.09 1019 10 16 0.00 0.00
12:53 am 00:53 Cloudy 55 12.8 53 11.7 93 93 N N/A 30.08 1019 7 11 0.00 0.00
1:53 am 01:53 Cloudy with Light Rain 55 12.8 54 12.2 96 96 N 5 7 30.07 1018 4 6 0.01 0.25
2:05 am 02:05 Cloudy 55 12.8 54 12.2 96 96 N N/A 30.08 1019 3 5 0.00 0.00
2:11 am 02:11 Cloudy with Light Rain 55 12.8 54 12.2 96 96 N N/A 30.08 1019 3 4 0.01 0.25
2:31 am 02:31 Cloudy 55 12.8 54 12.2 96 96 N N/A 30.08 1019 3 5 0.02 0.51
2:41 am 02:41 Cloudy with Light Rain 55 12.8 54 12.2 96 96 NNE 6 9 30.07 1018 3 4 0.02 0.51
2:44 am 02:44 Cloudy 55 12.8 54 12.2 96 96 NNE 5 7 30.07 1018 3 5 0.02 0.51
2:53 am 02:53 Cloudy with Light Rain 55 12.8 54 12.2 96 96 NE 3 6 30.06 1018 3 4 0.02 0.51
3:06 am 03:06 Cloudy with Light Rain 55 12.8 54 12.2 96 96 N N/A 30.07 1018 3 5 0.01 0.25
3:18 am 03:18 Cloudy 55 12.8 54 12.2 96 96 N N/A 30.07 1018 3 4 0.01 0.25
3:30 am 03:30 Cloudy with Light Rain 55 12.8 54 12.2 96 96 N N/A 30.07 1018 3 4 0.02 0.51
3:53 am 03:53 Cloudy with Light Rain 55 12.8 54 12.2 96 96 NE 5 7 30.05 1018 3 5 0.04 1.02
4:08 am 04:08 Cloudy with Light Rain 55 12.8 54 12.2 96 96 NE 5 7 30.05 1018 4 6 0.01 0.25
4:16 am 04:16 Cloudy with Light Rain 55 12.8 54 12.2 96 96 NE 3 6 30.05 1018 2 3 0.02 0.51
4:49 am 04:49 Cloudy with Light Rain 55 13 54 12 94 94 E 3 6 30.05 1018 3 5 0.05 1.27
4:51 am 04:51 Cloudy with Light Rain 55 13 54 12 94 94 E 5 7 30.05 1018 3 4 0.05 1.27
4:53 am 04:53 Cloudy with Light Rain 55 12.8 54 12.2 96 96 ENE 3 6 30.04 1017 3 4 0.06 1.52
4:57 am 04:57 Cloudy with Light Rain 55 12.8 54 12.2 96 96 E 5 7 30.05 1018 3 4 0.00 0.00
5:30 am 05:30 Cloudy with Light Rain 55 12.8 54 12.2 96 96 ENE 3 6 30.05 1018 4 6 0.03 0.76
5:41 am 05:41 Cloudy with Light Rain 56 13.3 54 12.2 93 93 NE 3 6 30.05 1018 4 6 0.04 1.02
5:51 am 05:51 Cloudy 55 13 54 12 94 94 N 3 6 30.06 1018 4 6 0.04 1.02
5:53 am 05:53 Cloudy 56 13.3 54 12.2 93 93 NNW 3 6 30.06 1018 4 6 0.04 1.02
6:30 am 06:30 Cloudy with Light Rain 56 13.3 55 12.8 97 97 N N/A 30.08 1019 3 5 0.01 0.25
6:37 am 06:37 Cloudy with Light Rain 56 13.3 55 12.8 97 97 N N/A 30.08 1019 2 3 0.02 0.51
6:46 am 06:46 Cloudy with Light Rain 56 13.3 55 12.8 97 97 NE 3 6 30.08 1019 3 4 0.03 0.76
6:53 am 06:53 Cloudy with Light Rain 56 13.3 55 12.8 97 97 N N/A 30.07 1018 3 4 0.03 0.76
7:06 am 07:06 Cloudy 56 13.3 55 12.8 97 97 N N/A 30.08 1019 3 5 0.01 0.25
7:15 am 07:15 Cloudy 56 13.3 55 12.8 97 97 N N/A 30.08 1019 3 4 0.01 0.25
7:27 am 07:27 Cloudy 56 13.3 55 12.8 97 97 N N/A 30.08 1019 3 5 0.01 0.25
7:38 am 07:38 Cloudy 56 13.3 55 12.8 97 97 N N/A 30.09 1019 2 3 0.02 0.51
7:53 am 07:53 Cloudy 56 13.3 55 12.8 97 97 WNW 5 7 30.08 1019 2 3 0.02 0.51
8:01 am 08:01 Cloudy 56 13.3 55 12.8 97 97 W 6 9 30.08 1019 3 4 0.01 0.25
8:08 am 08:08 Cloudy 56 13.3 55 12.8 97 97 W 7 11 30.08 1019 5 8 0.01 0.25
8:53 am 08:53 Cloudy 57 13.9 55 12.8 93 93 SW 7 11 30.08 1019 3 5 0.01 0.25
8:57 am 08:57 Cloudy 57 13.9 56 13.3 96 96 SW 8 13 30.08 1019 2 3 N/A
9:19 am 09:19 Cloudy 58 14.4 57 13.9 97 97 SSW 8 13 30.08 1019 2 3 N/A
9:50 am 09:50 Cloudy 59 15 57 14 94 94 SSW 9 15 30.07 1018 6 10 N/A
9:53 am 09:53 Cloudy 59 15 57 13.9 93 93 SSW 9 15 30.06 1018 8 13 N/A
10:01 am 10:01 Cloudy 59 15 57 13.9 93 93 SSW 9 15 30.07 1018 10 16 N/A
10:14 am 10:14 Cloudy 59 15 57 13.9 93 93 SSW 9 15 30.07 1018 2 3 N/A
10:38 am 10:38 Cloudy with Light Rain 59 15 58 14.4 96 96 SSW 9 15 30.08 1019 1 2 0.01 0.25
10:53 am 10:53 Cloudy with Light Rain 59 15 58 14.4 96 96 SSW 9 15 30.07 1018 2 3 0.02 0.51
11:00 am 11:00 Cloudy 59 15 58 14.4 96 96 SSW 10 17 30.07 1018 3 4 0.00 0.00
11:11 am 11:11 Cloudy 60 15.6 58 14.4 93 93 S 9 15 30.07 1018 3 5 0.00 0.00
11:26 am 11:26 Cloudy 59 15 57 13.9 93 93 SW 6 9 30.08 1019 5 8 0.00 0.00
11:34 am 11:34 Cloudy 59 15 58 14.4 96 96 WSW 6 9 30.08 1019 7 11 0.00 0.00
11:53 am 11:53 Cloudy 59 15 58 14.4 96 96 SSW 6 9 30.06 1018 2 3 0.00 0.00
12:00 pm 12:00 Cloudy 59 15 58 14.4 96 96 SW 7 11 30.07 1018 1 2 N/A
12:07 pm 12:07 Cloudy 59 15 58 14.4 96 96 SW 7 11 30.07 1018 2 3 N/A
12:18 pm 12:18 Cloudy 59 15 58 14.4 96 96 SW 7 11 30.07 1018 3 5 N/A
12:25 pm 12:25 Cloudy 59 15 58 14.4 96 96 SSW 7 11 30.06 1018 3 4 N/A
12:38 pm 12:38 Cloudy 59 15 58 14.4 96 96 SW 5 7 30.06 1018 2 2 N/A
12:53 pm 12:53 Cloudy 59 15 58 14.4 96 96 SW 5 7 30.04 1017 2 2 N/A
1:13 pm 13:13 Cloudy 59 15 58 14.4 96 96 SSW 7 11 30.04 1017 2 3 N/A
1:28 pm 13:28 Cloudy 59 15 58 14.4 96 96 SSW 9 15 30.03 1017 3 5 N/A
1:53 pm 13:53 Cloudy with Light Rain 60 15.6 58 14.4 93 93 SSW 7 11 30.01 1016 2 3 0.00 0.00
2:01 pm 14:01 Cloudy with Light Rain 60 15.6 58 14.4 93 93 SSW 6 9 30.01 1016 2 2 0.01 0.25
2:41 pm 14:41 Cloudy with Light Rain 60 15.6 59 15 96 96 W 5 7 30.00 1016 2 3 0.05 1.27
2:53 pm 14:53 Cloudy with Light Rain 60 15.6 59 15 96 96 W 7 11 29.98 1015 4 6 0.05 1.27
3:24 pm 15:24 Cloudy 60 15.6 58 14.4 93 93 W 5 7 29.98 1015 6 10 0.01 0.25
3:35 pm 15:35 Cloudy 59 15 58 14.4 96 96 W 6 9 29.98 1015 5 8 0.01 0.25
3:48 pm 15:48 Cloudy 61 16 59 15 94 94 SSW 10 17 29.98 1015 6 10 0.01 0.25
3:53 pm 15:53 Cloudy 63 17.2 60 15.6 90 90 SSW 8 13 29.97 1015 8 13 0.01 0.25
4:06 pm 16:06 Cloudy 63 17.2 61 16.1 93 93 SSW 10 17 29.97 1015 10 16 N/A
4:53 pm 16:53 Cloudy 61 16.1 59 15 93 93 W 5 7 29.96 1014 7 11 N/A
5:53 pm 17:53 Cloudy 65 18.3 62 16.7 90 90 S 18 30 29.93 1013 10 16 N/A
6:53 pm 18:53 Cloudy 66 18.9 61 16.1 84 84 S 17 28 29.90 1013 10 16 N/A
7:08 pm 19:08 Cloudy with Light Rain 66 18.9 61 16.1 84 84 S 18 30 29.89 1012 10 16 0.00 0.00
7:53 pm 19:53 Cloudy 66 18.9 61 16.1 84 84 S 21 33 29.88 1012 10 16 0.00 0.00
8:15 pm 20:15 Mostly Cloudy 65 18.3 61 16.1 87 87 S 18 30 29.87 1012 10 16 N/A
8:53 pm 20:53 Mostly Cloudy 66 18.9 61 16.1 84 84 S 24 39 29.87 1011 10 16 N/A
9:53 pm 21:53 Mostly Cloudy 67 19.4 60 15.6 79 79 S 26 43 29.85 1011 10 16 N/A
10:53 pm 22:53 Mostly Cloudy 67 19.4 59 15 76 76 S 25 41 29.85 1011 10 16 N/A
11:53 pm 23:53 Cloudy 66 18.9 59 15 78 78 S 26 43 29.83 1010 10 16 N/A

Powered by AerisWeather